Date,TemperatureHighF,TemperatureAvgF,TemperatureLowF,DewpointHighF,DewpointAvgF,DewpointLowF,HumidityHigh,HumidityAvg,HumidityLow,PressureMaxIn,PressureMinIn,WindSpeedMaxMPH,WindSpeedAvgMPH,GustSpeedMaxMPH,PrecipitationSumIn
2014-1-1,11.4,7.8,3.9,8.8,4.7,0.9,99,87,82,30.35,30.28,11,7,17,0.00
2014-1-2,12.1,6.3,-10.6,7.5,1.6,-14.3,92,81,74,30.49,30.26,12,6,17,0.00
2014-1-3,19.0,3.3,-17.7,16.9,-0.6,-21.9,92,83,81,30.48,29.84,19,8,26,0.00
2014-1-4,29.5,25.6,18.9,28.2,22.3,13.7,96,87,78,30.07,29.76,17,9,24,0.00
2014-1-5,19.4,7.5,-8.8,13.4,-0.5,-14.6,77,69,58,30.20,30.06,17,11,27,0.00
2014-1-6,-9.0,-12.7,-17.7,-11.1,-18.3,-23.7,92,75,70,30.34,30.19,17,11,25,0.00
2014-1-7,2.8,-7.4,-13.9,-4.5,-12.6,-19.0,84,77,70,30.37,30.28,9,3,13,0.00
2014-1-8,9.7,-4.2,-13.9,3.5,-8.9,-17.8,89,80,68,30.57,30.34,4,1,7,0.00
2014-1-9,25.2,5.4,-14.1,24.0,2.3,-18.0,95,87,82,30.58,30.16,8,2,11,0.00
2014-1-10,36.9,32.2,25.3,36.1,31.5,24.1,98,97,95,30.16,29.45,12,5,18,0.41
2014-1-11,36.2,33.1,28.7,35.6,30.5,25.6,98,90,81,29.79,29.43,15,8,21,0.01
2014-1-12,39.6,33.5,26.5,34.6,30.3,24.5,94,88,77,29.82,29.54,18,8,27,0.00
2014-1-13,41.3,34.0,23.8,36.8,30.4,21.3,94,87,73,29.75,29.53,12,4,19,0.00
2014-1-14,35.5,27.2,17.3,34.1,23.5,12.7,96,86,77,29.95,29.55,18,12,30,0.00
2014-1-15,20.9,14.0,9.2,17.4,9.1,4.7,92,81,70,30.13,29.74,15,7,24,0.00
2014-1-16,24.7,23.1,21.1,21.1,18.5,17.3,86,82,80,29.74,29.62,15,11,21,0.00
2014-1-28,4.4,-1.9,-11.3,-4.4,-8.3,-16.0,83,74,60,30.49,30.29,12,5,18,0.00
2014-1-29,22.2,9.0,-5.4,12.6,2.1,-9.5,83,73,63,30.29,29.92,14,6,19,0.00
2014-1-30,32.0,24.7,16.9,28.2,19.0,11.5,94,79,68,29.97,29.60,22,12,29,0.00
2014-1-31,16.8,10.9,7.0,11.4,5.0,1.9,82,77,70,30.21,29.96,8,2,13,0.00